GPS BIIF-8 (40294 NORAD) Tracking and Keplerian Element Data

This shows tracking and keplerian element data for the satellite.

Feedback or suggestion? Click here.




ElementValue
Catalog40294
NameGPS BIIF-8
Epoch Orbit2721
Epoch Day198.66570202
Epoch Year2018
RAAN144.7664
Inclination55.079
Eccentricity0.0014535
Argument of Perigee20.4333
Mean Anonmoly339.6001
Mean Motion2.00558156
Decay Rate2E-07
L11 40294U 14068A 18198.66570202 .00000020 00000-0 00000-0 0 9995
L22 40294 55.0790 144.7664 0014535 20.4333 339.6001 2.00558156 27218

Live tracking and technical data element details for GPS BIIF-8 (NORAD 40294). GPS BIIF-8 can be tracked NOW for your location showing map with azimuth and elevation plus other details from your city location.

Track the satellite on the map from your city or location and see movement details for azimuth, elevation, latitude, longitude, range, height, and movement on the map or in text.







IsCatalogInMostPopularTable: catalog: 40294, numindb: 51
Update: records affected: 1



GetName: 40294 GPS BIIF-8

Hit Count: updated at: Thu, 19 Jul 2018 21:11:46 GMT